KC5TXI Weather Reports


time (UTC)temp
F
wind
direction
speed
knots
gust
knots
rain 1hr
in
rain 24hr
in
rain mn
in
humidity
%
barometer
mb
20260509211641 94 193 0.0 0.0 0.00 0.00 0.00 39 1009.7
20260509211137 93 84 0.9 0.9 0.00 0.00 0.00 41 1009.6
20260509210635 93 214 0.0 0.9 0.00 0.00 0.00 38 1009.8
20260509210131 93 223 0.0 0.0 0.00 0.00 0.00 40 1009.8
20260509205626 91 207 0.0 0.0 0.00 0.00 0.00 40 1009.8
20260509205121 91 129 0.0 0.0 0.00 0.00 0.00 39 1009.9
20260509204617 92 75 1.7 1.7 0.00 0.00 0.00 40 1009.9
20260509204108 93 54 0.9 0.9 0.00 0.00 0.00 38 1010.1
20260509203604 91 157 0.0 0.0 0.00 0.00 0.00 41 1010.1
20260509203103 91 178 0.0 0.0 0.00 0.00 0.00 41 1010.5
20260509202602 91 95 0.9 0.9 0.00 0.00 0.00 41 1010.6
20260509202053 91 75 0.9 1.7 0.00 0.00 0.00 40 1010.5
20260509201547 91 69 2.6 5.2 0.00 0.00 0.00 42 1010.6
20260509201045 91 282 2.6 2.6 0.00 0.00 0.00 41 1010.7
20260509200539 92 198 0.0 0.0 0.00 0.00 0.00 43 1010.6
20260509200036 93 211 0.0 0.0 0.00 0.00 0.00 45 1010.6
20260509195531 92 334 2.6 4.3 0.00 0.00 0.00 44 1010.7
20260509195026 91 211 0.0 0.0 0.00 0.00 0.00 43 1010.8
20260509194521 92 210 0.0 0.9 0.00 0.00 0.00 45 1010.9
20260509194018 93 92 0.0 0.9 0.00 0.00 0.00 41 1011.0
20260509193513 90 198 0.9 1.7 0.00 0.00 0.00 44 1011.0
20260509193010 89 196 0.0 0.0 0.00 0.00 0.00 47 1011.0
20260509192506 90 225 0.9 0.9 0.00 0.00 0.00 44 1011.1
20260509192001 89 200 0.0 0.0 0.00 0.00 0.00 45 1010.9
20260509191456 89 201 0.0 0.0 0.00 0.00 0.00 47 1011.0
20260509190952 89 101 0.9 1.7 0.00 0.00 0.00 47 1011.1
20260509190449 89 197 0.0 0.0 0.00 0.00 0.00 49 1011.2
20260509185947 90 297 1.7 2.6 0.00 0.00 0.00 48 1011.3
20260509185444 89 255 0.9 0.9 0.00 0.00 0.00 48 1011.2
20260509184941 90 17 2.6 2.6 0.00 0.00 0.00 47 1011.3
20260509184439 91 330 1.7 1.7 0.00 0.00 0.00 46 1011.4
20260509183935 89 332 0.0 0.0 0.00 0.00 0.00 46 1011.3
20260509183429 90 79 2.6 2.6 0.00 0.00 0.00 46 1011.2
20260509182926 89 135 0.9 1.7 0.00 0.00 0.00 49 1011.4
20260509182422 89 216 0.0 0.0 0.00 0.00 0.00 50 1011.4
20260509181920 88 332 0.9 0.9 0.00 0.00 0.00 49 1011.5
20260509181418 88 262 0.9 1.7 0.00 0.00 0.00 48 1011.6
20260509180914 90 143 0.0 0.0 0.00 0.00 0.00 47 1011.7
20260509180410 87 358 0.9 0.9 0.00 0.00 0.00 49 1011.7
20260509175907 87 249 0.9 0.9 0.00 0.00 0.00 49 1011.7
20260509175403 89 333 0.9 1.7 0.00 0.00 0.00 47 1011.7
20260509174859 89 311 1.7 2.6 0.00 0.00 0.00 49 1011.8
20260509174356 88 197 0.0 0.0 0.00 0.00 0.00 47 1011.8
20260509173851 88 313 0.9 1.7 0.00 0.00 0.00 49 1012.0
20260509173341 88 315 0.0 0.0 0.00 0.00 0.00 49 1011.8
20260509172838 87 265 0.9 0.9 0.00 0.00 0.00 51 1011.9
20260509172334 88 309 0.9 1.7 0.00 0.00 0.00 50 1011.8
20260509171830 87 75 1.7 1.7 0.00 0.00 0.00 51 1011.9
20260509171326 87 107 0.9 0.9 0.00 0.00 0.00 52 1012.0
20260509170823 87 72 2.6 2.6 0.00 0.00 0.00 50 1012.1
20260509170319 87 204 0.0 0.0 0.00 0.00 0.00 54 1012.2
20260509165818 85 332 1.7 2.6 0.00 0.00 0.00 52 1012.0
20260509165313 85 140 0.0 0.0 0.00 0.00 0.00 54 1012.3
20260509164809 85 14 1.7 2.6 0.00 0.00 0.00 53 1012.3
20260509164300 84 247 0.0 0.0 0.00 0.00 0.00 56 1012.3
20260509163756 84 141 0.0 0.0 0.00 0.00 0.00 55 1012.3
20260509163253 84 208 0.0 0.0 0.00 0.00 0.00 59 1012.3
20260509162752 83 17 2.6 2.6 0.00 0.00 0.00 59 1012.2
20260509162245 84 232 0.0 0.9 0.00 0.00 0.00 59 1012.4
20260509161742 84 193 0.9 0.9 0.00 0.00 0.00 60 1012.2
20260509161238 84 13 2.6 2.6 0.00 0.00 0.00 59 1012.1
20260509160733 84 159 0.9 0.9 0.00 0.00 0.00 59 1012.2
20260509160230 83 224 0.9 1.7 0.00 0.00 0.00 61 1012.3
20260509155724 84 195 0.0 0.9 0.00 0.00 0.00 61 1012.2
20260509155222 84 219 0.9 0.9 0.00 0.00 0.00 61 1012.1
20260509154718 84 171 0.9 1.7 0.00 0.00 0.00 60 1012.3
20260509154215 82 204 0.0 0.0 0.00 0.00 0.00 61 1012.1
20260509153712 81 71 0.0 0.9 0.00 0.00 0.00 64 1012.1
20260509153208 80 10 1.7 1.7 0.00 0.00 0.00 64 1012.1
20260509152704 80 276 0.9 0.9 0.00 0.00 0.00 65 1012.1
20260509152201 80 302 1.7 2.6 0.00 0.00 0.00 64 1012.1
20260509151658 80 294 1.7 2.6 0.00 0.00 0.00 62 1012.1
20260509151155 80 240 2.6 5.2 0.00 0.00 0.00 64 1012.0
20260509150653 79 285 0.0 0.9 0.00 0.00 0.00 64 1012.1
20260509150151 80 319 2.6 4.3 0.00 0.00 0.00 63 1012.2
20260509145647 80 246 0.0 0.0 0.00 0.00 0.00 63 1012.4
20260509145142 80 4 1.7 2.6 0.00 0.00 0.00 63 1012.1
20260509144639 80 45 0.9 0.9 0.00 0.00 0.00 65 1012.2
20260509144136 79 106 1.7 1.7 0.00 0.00 0.00 67 1012.2
20260509143633 78 212 0.9 0.9 0.00 0.00 0.00 71 1012.1
20260509143131 78 308 0.9 1.7 0.00 0.00 0.00 73 1012.1
20260509142626 78 188 0.9 0.9 0.00 0.00 0.00 74 1012.2
20260509142123 78 182 0.0 0.9 0.00 0.00 0.00 75 1012.3
20260509141619 78 186 0.0 0.0 0.00 0.00 0.00 76 1012.4
20260509141115 77 113 0.0 0.0 0.00 0.00 0.00 77 1012.3
20260509140612 77 150 0.0 0.0 0.00 0.00 0.00 78 1012.4
20260509140110 76 227 0.0 0.0 0.00 0.00 0.00 79 1012.3
20260509135607 75 163 0.0 0.9 0.00 0.00 0.00 81 1012.2
20260509135105 74 334 1.7 2.6 0.00 0.00 0.00 82 1012.1
20260509134602 74 173 0.0 0.0 0.00 0.00 0.00 84 1012.2
20260509134059 73 183 0.9 0.9 0.00 0.00 0.00 84 1012.2
20260509133556 72 174 1.7 1.7 0.00 0.00 0.00 86 1011.9
20260509133053 71 78 0.9 1.7 0.00 0.00 0.00 87 1012.1
20260509132552 71 241 1.7 1.7 0.00 0.00 0.00 87 1012.1
20260509132050 71 196 1.7 2.6 0.00 0.00 0.00 87 1012.0
20260509131545 71 183 1.7 1.7 0.00 0.00 0.00 88 1012.0
20260509131043 71 41 0.9 1.7 0.00 0.00 0.00 88 1012.0
20260509130538 70 336 1.7 1.7 0.00 0.00 0.00 88 1012.0
20260509130035 70 191 0.0 0.0 0.00 0.00 0.00 89 1012.0
20260509125531 70 190 0.9 0.9 0.00 0.00 0.00 90 1012.0
20260509125028 69 335 1.7 1.7 0.00 0.00 0.00 91 1011.8
20260509124519 69 202 1.7 1.7 0.00 0.00 0.00 93 1011.8
20260509124016 68 96 0.9 1.7 0.00 0.00 0.00 94 1011.8
20260509123514 68 193 0.9 0.9 0.00 0.00 0.00 95 1011.8
20260509123010 67 201 0.0 0.0 0.00 0.00 0.00 96 1011.8
20260509122507 67 198 0.0 0.0 0.00 0.00 0.00 96 1012.0
20260509122004 68 195 0.0 0.0 0.00 0.00 0.00 96 1012.0
20260509121500 67 197 0.0 0.0 0.00 0.00 0.00 96 1011.7
20260509120958 67 200 0.0 0.0 0.00 0.00 0.00 96 1011.8
20260509120456 67 200 0.0 0.0 0.00 0.00 0.00 95 1011.8
20260509115954 67 199 0.0 0.0 0.00 0.00 0.00 95 1011.7
20260509115451 67 199 0.0 0.0 0.00 0.00 0.00 95 1011.5
20260509114948 68 199 0.0 0.0 0.00 0.00 0.00 94 1011.6
20260509114446 68 183 0.0 0.0 0.00 0.00 0.00 94 1011.4
20260509113946 68 191 0.0 0.0 0.00 0.00 0.00 93 1011.5
20260509113442 68 191 0.0 0.0 0.00 0.00 0.00 93 1011.4
20260509112939 68 191 0.0 0.0 0.00 0.00 0.00 92 1011.5
20260509112437 68 209 0.0 0.0 0.00 0.00 0.00 92 1011.3
20260509111933 68 187 0.0 0.0 0.00 0.00 0.00 91 1011.1
20260509111431 69 187 0.0 0.0 0.00 0.00 0.00 91 1010.9
20260509110928 69 197 0.0 0.0 0.00 0.00 0.00 90 1010.9
20260509110424 70 192 0.0 0.0 0.00 0.00 0.00 90 1011.0
20260509105922 70 191 0.0 0.0 0.00 0.00 0.00 90 1010.9
20260509105420 70 186 0.0 0.0 0.00 0.00 0.00 90 1010.9
20260509104917 69 193 0.0 0.0 0.00 0.00 0.00 90 1010.9
20260509104414 69 193 0.0 0.0 0.00 0.00 0.00 91 1010.9
20260509103911 70 184 0.0 0.0 0.00 0.00 0.00 91 1011.0
20260509103408 70 188 0.0 0.0 0.00 0.00 0.00 92 1010.9
20260509102907 71 195 0.0 0.0 0.00 0.00 0.00 91 1010.8
20260509102404 71 187 0.0 0.0 0.00 0.00 0.00 92 1010.9
20260509101859 71 198 0.0 0.0 0.00 0.00 0.00 92 1010.8
20260509101355 71 199 0.0 0.0 0.00 0.00 0.00 92 1010.9
20260509100854 71 227 0.0 0.0 0.00 0.00 0.00 92 1011.0
20260509100350 71 204 0.9 0.9 0.00 0.00 0.00 93 1011.1
20260509095842 71 309 0.9 0.9 0.00 0.00 0.00 93 1010.9
20260509095339 71 237 2.6 5.2 0.00 0.00 0.00 94 1010.3
20260509094836 71 313 1.7 4.3 0.00 0.00 0.00 94 1009.7
20260509094332 71 238 3.5 4.3 0.00 0.00 0.00 94 1009.8
20260509093830 71 168 0.0 0.9 0.00 0.00 0.00 94 1008.9
20260509093327 71 215 1.7 1.7 0.00 0.00 0.00 94 1008.5
20260509092826 71 181 1.7 2.6 0.00 0.00 0.00 94 1008.2
20260509092323 71 186 1.7 1.7 0.00 0.00 0.00 94 1008.1
20260509091821 71 210 1.7 1.7 0.00 0.00 0.00 94 1008.4
20260509091318 71 216 0.9 1.7 0.00 0.00 0.00 93 1008.2
20260509090815 71 201 2.6 4.3 0.00 0.00 0.00 94 1008.3
20260509090312 71 194 2.6 4.3 0.00 0.00 0.00 93 1008.5
20260509085809 71 242 1.7 2.6 0.00 0.00 0.00 93 1008.6
20260509085307 71 188 1.7 1.7 0.00 0.00 0.00 93 1008.6
20260509084803 71 184 0.9 1.7 0.00 0.00 0.00 93 1008.8
20260509084300 71 64 2.6 4.3 0.00 0.00 0.00 93 1008.4
20260509083758 71 240 4.3 8.7 0.00 0.00 0.00 93 1008.4
20260509083254 70 176 2.6 2.6 0.00 0.00 0.00 93 1008.7
20260509082751 70 197 1.7 2.6 0.00 0.00 0.00 93 1008.9
20260509082248 70 189 0.9 0.9 0.00 0.00 0.00 94 1009.0
20260509081744 70 173 1.7 2.6 0.00 0.00 0.00 94 1009.6
20260509081242 70 181 2.6 4.3 0.00 0.00 0.00 95 1010.0
20260509080740 69 166 0.9 0.9 0.00 0.00 0.00 95 1010.1
20260509080237 69 158 3.5 5.2 0.00 0.00 0.00 95 1010.6
20260509075736 69 194 0.0 0.0 0.00 0.00 0.00 94 1010.8
20260509075233 69 190 0.0 0.0 0.00 0.00 0.00 94 1011.2
20260509074729 69 189 0.0 0.0 0.00 0.00 0.00 94 1011.4
20260509074227 70 175 0.0 0.0 0.00 0.00 0.00 94 1011.7
20260509073723 70 198 0.0 0.0 0.00 0.00 0.00 94 1011.4
20260509073219 70 141 0.0 0.0 0.00 0.00 0.00 94 1011.8
20260509072716 70 170 0.0 0.0 0.00 0.00 0.00 95 1012.2
20260509072213 70 135 0.0 0.0 0.00 0.00 0.00 95 1012.2
20260509071710 70 200 0.0 0.0 0.00 0.00 0.00 95 1012.5
20260509071207 70 200 0.0 0.0 0.00 0.00 0.00 95 1012.7
20260509070704 70 185 0.0 0.0 0.00 0.00 0.00 95 1012.8
20260509070200 70 199 0.0 0.0 0.00 0.00 0.00 95 1013.0
20260509065656 69 205 0.0 0.0 0.00 0.00 0.00 95 1013.1
20260509065153 69 193 0.0 0.0 0.00 0.00 0.00 95 1012.7
20260509064650 70 203 0.0 0.0 0.00 0.00 0.00 95 1012.6
20260509064147 70 205 0.0 0.0 0.00 0.00 0.00 95 1012.7
20260509063644 70 204 0.0 0.0 0.00 0.00 0.00 94 1012.4
20260509063140 70 204 0.0 0.0 0.00 0.00 0.00 94 1012.5
20260509062638 70 193 0.0 0.0 0.00 0.00 0.00 94 1012.4
20260509062135 70 201 0.0 0.0 0.00 0.00 0.00 94 1012.7
20260509061631 70 201 0.0 0.0 0.00 0.00 0.00 94 1012.8
20260509061129 70 199 0.0 0.0 0.00 0.00 0.00 94 1012.8
20260509060627 70 190 0.0 0.0 0.00 0.00 0.00 94 1012.9
20260509060122 70 200 0.0 0.0 0.00 0.00 0.00 94 1012.8
20260509055618 70 199 0.0 0.0 0.00 0.00 0.00 95 1012.6
20260509055114 70 192 0.0 0.0 0.00 0.00 0.00 95 1012.8
20260509054611 70 230 0.0 0.0 0.00 0.00 0.00 95 1012.9
20260509054109 69 228 0.0 0.0 0.00 0.00 0.00 95 1012.6
20260509053607 69 206 0.0 0.0 0.00 0.00 0.00 95 1012.6
20260509053104 69 193 0.0 0.0 0.00 0.00 0.00 95 1012.6
20260509052602 69 269 0.0 0.0 0.00 0.00 0.00 94 1012.7
20260509052059 69 112 0.0 0.0 0.00 0.00 0.00 94 1011.8
20260509051557 69 196 0.0 0.0 0.00 0.00 0.00 93 1011.8
20260509051054 69 179 0.0 0.0 0.00 0.00 0.00 92 1011.9
20260509050550 70 180 0.0 0.0 0.00 0.00 0.00 92 1012.1
20260509050047 70 180 0.0 0.0 0.00 0.00 0.00 92 1011.8
20260509045545 70 179 0.0 0.0 0.00 0.00 0.00 91 1011.7
20260509045041 71 175 0.0 0.0 0.00 0.00 0.00 91 1011.8
20260509044539 71 182 0.0 0.0 0.00 0.00 0.00 91 1011.7
20260509044036 71 194 0.0 0.0 0.00 0.00 0.00 91 1011.7
20260509043532 71 190 0.0 0.0 0.00 0.00 0.00 91 1011.8
20260509043028 71 195 0.0 0.0 0.00 0.00 0.00 90 1011.8
20260509042524 71 194 0.0 0.0 0.00 0.00 0.00 90 1011.8
20260509042021 71 184 0.0 0.0 0.00 0.00 0.00 90 1011.9
20260509041517 71 178 0.0 0.0 0.00 0.00 0.00 90 1012.1
20260509041014 71 186 0.0 0.0 0.00 0.00 0.00 90 1012.4
20260509040513 71 182 0.0 0.0 0.00 0.00 0.00 89 1012.2
20260509040005 72 190 0.0 0.0 0.00 0.00 0.00 89 1012.1
20260509035501 72 197 0.0 0.0 0.00 0.00 0.00 88 1012.1
20260509034957 72 191 0.0 0.0 0.00 0.00 0.00 88 1011.9
20260509034456 72 172 0.0 0.0 0.00 0.00 0.00 87 1011.8
20260509033952 72 194 0.0 0.9 0.00 0.00 0.00 87 1011.4
20260509033449 73 190 0.9 0.9 0.00 0.00 0.00 87 1011.5
20260509032946 73 178 0.9 0.9 0.00 0.00 0.00 86 1011.4
20260509032443 73 179 1.7 2.6 0.00 0.00 0.00 86 1011.2
20260509031941 73 171 0.0 0.0 0.00 0.00 0.00 86 1011.2
20260509031438 73 182 0.0 0.0 0.00 0.00 0.00 85 1011.0
20260509030935 73 189 0.0 0.0 0.00 0.00 0.00 85 1010.8
20260509030433 73 178 0.0 0.0 0.00 0.00 0.00 85 1010.8
20260509025930 73 194 0.9 1.7 0.00 0.00 0.00 85 1011.1
20260509025426 73 184 0.9 0.9 0.00 0.00 0.00 85 1010.8
20260509024921 73 162 2.6 4.3 0.00 0.00 0.00 84 1010.8
20260509024417 74 125 0.9 0.9 0.00 0.00 0.00 84 1010.7
20260509023914 74 192 0.0 0.0 0.00 0.00 0.00 84 1010.4
20260509023412 74 176 0.0 0.0 0.00 0.00 0.00 84 1010.6
20260509022908 74 209 0.0 0.0 0.00 0.00 0.00 84 1010.3
20260509022405 74 170 0.0 0.0 0.00 0.00 0.00 84 1010.4
20260509021903 74 167 0.9 0.9 0.00 0.00 0.00 84 1010.4
20260509021400 73 190 0.0 0.0 0.00 0.00 0.00 84 1010.5
20260509020857 73 163 0.0 0.0 0.00 0.00 0.00 84 1010.6
20260509020355 73 181 0.0 0.0 0.00 0.00 0.00 83 1010.4
20260509015852 73 190 0.0 0.0 0.00 0.00 0.00 83 1010.5
20260509015350 73 187 0.0 0.0 0.00 0.00 0.00 83 1010.6
20260509014847 73 188 0.0 0.0 0.00 0.00 0.00 83 1010.5
20260509014344 73 186 0.0 0.0 0.00 0.00 0.00 83 1010.6
20260509013840 74 198 0.0 0.0 0.00 0.00 0.00 83 1010.4
20260509013337 73 175 0.0 0.0 0.00 0.00 0.00 83 1010.6
20260509012832 74 195 0.0 0.0 0.00 0.00 0.00 83 1010.4
20260509012329 74 190 0.0 0.0 0.00 0.00 0.00 83 1010.5
20260509011827 74 192 0.0 0.0 0.00 0.00 0.00 83 1010.3
20260509011324 74 182 0.0 0.0 0.00 0.00 0.00 83 1010.1
20260509010822 74 153 0.0 0.0 0.00 0.00 0.00 83 1010.1
20260509010319 74 195 0.0 0.0 0.00 0.00 0.00 83 1010.0
20260509005816 74 184 0.0 0.0 0.00 0.00 0.00 83 1009.9
20260509005314 74 192 0.0 0.0 0.00 0.00 0.00 82 1010.0
20260509004813 74 188 0.0 0.0 0.00 0.00 0.00 82 1009.7
20260509004305 74 199 0.0 0.0 0.00 0.00 0.00 82 1009.6
20260509003803 74 178 0.0 0.0 0.00 0.00 0.00 81 1009.6
20260509003301 74 201 0.0 0.9 0.00 0.00 0.00 81 1009.5
20260509002757 74 199 0.0 0.0 0.00 0.00 0.00 81 1009.7
20260509002255 74 185 0.0 0.0 0.00 0.00 0.00 80 1009.7
20260509001753 74 187 0.0 0.0 0.00 0.00 0.00 80 1009.7
20260509001248 75 152 1.7 1.7 0.00 0.00 0.00 80 1009.8
20260509000746 75 198 0.0 0.0 0.00 0.00 0.00 80 1009.8
20260509000243 75 166 0.0 0.0 0.00 0.00 0.00 79 1009.9
20260508235740 75 180 0.0 0.0 0.00 0.00 0.00 78 1009.9
20260508235236 75 188 0.0 0.0 0.00 0.00 0.00 78 1010.0
20260508234734 75 173 0.0 0.0 0.00 0.00 0.00 78 1010.0
20260508234230 75 157 0.0 0.0 0.00 0.00 0.00 78 1010.1
20260508233730 75 201 0.0 0.0 0.00 0.00 0.00 78 1010.1
20260508233227 75 165 0.9 1.7 0.00 0.00 0.00 78 1010.1
20260508232724 75 190 0.9 0.9 0.00 0.00 0.00 78 1010.0
20260508232221 75 189 0.9 0.9 0.00 0.00 0.00 78 1010.1
20260508231719 75 190 0.9 1.7 0.00 0.00 0.00 77 1010.3
20260508231215 75 173 0.9 1.7 0.00 0.00 0.00 77 1010.0
20260508230712 75 148 0.0 0.9 0.00 0.00 0.00 77 1010.0
20260508230208 75 161 0.9 0.9 0.00 0.00 0.00 77 1010.0
20260508225707 75 144 0.9 1.7 0.00 0.00 0.00 77 1010.0
20260508225202 75 249 0.9 1.7 0.00 0.00 0.00 76 1009.8
20260508224701 75 184 0.0 0.9 0.00 0.00 0.00 76 1010.0
20260508224157 76 127 0.0 0.9 0.00 0.00 0.00 75 1009.8
20260508223655 76 201 0.0 0.9 0.00 0.00 0.00 74 1010.0
20260508223152 76 209 2.6 2.6 0.00 0.00 0.00 74 1009.9
20260508222650 75 195 1.7 2.6 0.00 0.00 0.00 75 1009.9
20260508222147 75 138 0.9 1.7 0.00 0.00 0.00 75 1010.1
20260508221643 75 165 0.9 0.9 0.00 0.00 0.00 75 1010.3
20260508221139 75 211 0.9 1.7 0.00 0.00 0.00 74 1010.3
20260508220636 75 190 0.9 0.9 0.00 0.00 0.00 74 1010.3
20260508220132 74 199 1.7 1.7 0.00 0.00 0.00 74 1010.3
20260508215629 74 121 2.6 4.3 0.00 0.00 0.00 74 1010.6
20260508215125 75 202 3.5 6.1 0.00 0.00 0.00 72 1010.6
20260508214623 74 116 2.6 4.3 0.00 0.00 0.00 73 1010.6
20260508214120 74 263 2.6 4.3 0.00 0.00 0.00 73 1010.7
20260508213616 73 156 2.6 4.3 0.00 0.00 0.00 74 1010.8
20260508213112 73 126 2.6 2.6 0.00 0.00 0.00 75 1010.9
20260508212609 73 190 0.9 0.9 0.00 0.00 0.00 77 1010.9
20260508212106 73 206 0.0 0.9 0.00 0.00 0.00 76 1011.2